Weather History for Rickenbacker, OH

Change the Weather History Date:

Wednesday, January 29, 2014

  Actual Average Record
Temperature  
Mean Temperature 6 °F -  
Max Temperature 20 °F 36 °F 69 °F (2013)
Min Temperature -9 °F 21 °F -9 °F (2014)
Degree Days  
Heating Degree Days 60    
Moisture  
Dew Point -7 °F    
Average Humidity 56    
Maximum Humidity 72    
Minimum Humidity 40    
Precipitation  
Precipitation 0.00 in - - ()
Sea Level Pressure  
Sea Level Pressure 30.30 in    
Wind  
Wind Speed 7 mph (SSW)    
Max Wind Speed 17 mph    
Max Gust Speed 22 mph    
Visibility 10 miles    
Events      
Averages and records for this station are not official NWS values.
T = Trace of Precipitation, MM = Missing Value Source: NWS Daily Summary

Daily Weather History Graph

Daily Weather History Graph

Search for Another Location

Airport:

Trip Planner

Search our weather history database for the weather conditions in past years. The results will help you decide how hot, cold, wet, or windy it might be!

Date:

Astronomy

Jan. 29, 2014 Rise Set
Actual Time 7:42 AM EST 5:47 PM EST
Civil Twilight 7:13 AM EST 6:16 PM EST
Nautical Twilight 6:41 AM EST 6:48 PM EST
Astronomical Twilight 6:09 AM EST 7:20 PM EST
Moon 6:18 AM EST (1/29) 4:46 PM EST (1/29)
Length of Visible Light 11h 02m
Length of Day
10h 05m
Waning Crescent, 2% of the Moon is Illuminated
Jan 29
Waning Crescent
Jan 30
New
Feb 6
First Quarter
Feb 14
Full
Feb 22
Last Quarter

Hourly Weather History & Observations

Time (EST) Temp. Windchill Dew Point Humidity Pressure Visibility Wind Dir Wind Speed Gust Speed Precip Events Conditions
12:15 AM -8.9 °F -20.2 °F -16.1 °F 71% 30.31 in 10.0 mi SSE 4.6 mph - N/A   Clear
12:35 AM -8.5 °F -17.6 °F -15.7 °F 71% 30.31 in 10.0 mi South 3.5 mph - N/A   Clear
12:55 AM -8.5 °F - -15.7 °F 71% 30.31 in 10.0 mi Calm Calm - N/A   Clear
1:15 AM -7.8 °F - -14.6 °F 72% 30.30 in 10.0 mi Calm Calm - N/A   Clear
1:35 AM -6.9 °F -17.9 °F -14.3 °F 70% 30.31 in 10.0 mi South 4.6 mph - N/A   Clear
1:55 AM -9.0 °F -20.4 °F -16.6 °F 69% 30.30 in 10.0 mi South 4.6 mph - N/A   Clear
2:15 AM -8.5 °F -19.8 °F -15.7 °F 71% 30.30 in 10.0 mi SSW 4.6 mph - N/A   Clear
2:35 AM -6.9 °F -15.7 °F -13.9 °F 72% 30.30 in 10.0 mi SSW 3.5 mph - N/A   Clear
2:55 AM -6.2 °F -14.9 °F -13.2 °F 72% 30.30 in 10.0 mi SSE 3.5 mph - N/A   Clear
3:15 AM -8.0 °F -19.2 °F -14.8 °F 72% 30.30 in 10.0 mi South 4.6 mph - N/A   Clear
3:35 AM -7.8 °F -19.0 °F -14.8 °F 71% 30.30 in 10.0 mi South 4.6 mph - N/A   Clear
3:55 AM -7.2 °F -18.3 °F -14.4 °F 71% 30.30 in 10.0 mi South 4.6 mph - N/A   Clear
4:15 AM -6.2 °F -20.4 °F -14.1 °F 69% 30.29 in 10.0 mi South 6.9 mph - N/A   Clear
4:35 AM -5.8 °F -19.9 °F -14.1 °F 67% 30.28 in 10.0 mi South 6.9 mph - N/A   Clear
4:55 AM -5.1 °F -19.1 °F -13.7 °F 66% 30.28 in 10.0 mi South 6.9 mph - N/A   Clear
5:15 AM -5.4 °F -19.5 °F -14.1 °F 66% 30.28 in 10.0 mi South 6.9 mph - N/A   Clear
5:35 AM -5.6 °F -21.0 °F -14.4 °F 66% 30.28 in 10.0 mi SSW 8.1 mph - N/A   Clear
5:55 AM -5.8 °F -19.9 °F -14.4 °F 66% 30.29 in 10.0 mi SSW 6.9 mph - N/A   Clear
6:15 AM -5.1 °F -19.1 °F -14.1 °F 65% 30.28 in 10.0 mi South 6.9 mph - N/A   Clear
6:35 AM -4.5 °F -18.4 °F -13.7 °F 65% 30.29 in 10.0 mi SSW 6.9 mph - N/A   Clear
6:55 AM -4.4 °F -18.2 °F -13.5 °F 65% 30.29 in 10.0 mi SSW 6.9 mph - N/A   Clear
7:15 AM -4.4 °F -19.5 °F -13.5 °F 65% 30.30 in 10.0 mi SSW 8.1 mph - N/A   Clear
7:35 AM -4.5 °F -18.4 °F -13.5 °F 65% 30.29 in 10.0 mi SSW 6.9 mph - N/A   Clear
7:55 AM -4.5 °F -18.4 °F -13.4 °F 66% 30.30 in 10.0 mi SSW 6.9 mph - N/A   Clear
8:15 AM -4.4 °F -18.2 °F -13.4 °F 65% 30.29 in 10.0 mi SSW 6.9 mph - N/A   Clear
8:35 AM -3.1 °F -17.9 °F -12.5 °F 64% 30.30 in 10.0 mi SSW 8.1 mph - N/A   Clear
8:55 AM -1.1 °F -15.5 °F -11.0 °F 63% 30.30 in 10.0 mi SSW 8.1 mph - N/A   Clear
9:15 AM 0.9 °F -14.2 °F -9.6 °F 62% 30.31 in 10.0 mi SSW 9.2 mph - N/A   Clear
9:35 AM 1.9 °F -10.6 °F -9.0 °F 60% 30.31 in 10.0 mi SW 6.9 mph - N/A   Clear
9:55 AM 3.0 °F -10.5 °F -7.6 °F 61% 30.32 in 10.0 mi SSW 8.1 mph - N/A   Clear
10:15 AM 5.0 °F -8.1 °F -6.5 °F 59% 30.32 in 10.0 mi SSW 8.1 mph - N/A   Clear
10:35 AM 7.2 °F -6.4 °F -5.3 °F 57% 30.32 in 10.0 mi SSW 9.2 mph - N/A   Clear
10:55 AM 9.7 °F -3.3 °F -3.8 °F 54% 30.32 in 10.0 mi SSW 9.2 mph - N/A   Clear
11:15 AM 12.6 °F -1.4 °F -2.9 °F 50% 30.32 in 10.0 mi SW 11.5 mph - N/A   Clear
11:35 AM 14.2 °F 1.4 °F -2.6 °F 48% 30.32 in 10.0 mi WSW 10.4 mph - N/A   Clear
11:55 AM 15.4 °F 1.0 °F -1.5 °F 47% 30.31 in 10.0 mi WSW 13.8 mph - N/A   Clear
12:15 PM 16.3 °F 2.1 °F -1.8 °F 45% 30.31 in 10.0 mi WSW 13.8 mph 19.6 mph N/A   Clear
12:35 PM 17.2 °F 3.3 °F -1.7 °F 43% 30.30 in 10.0 mi WSW 13.8 mph 18.4 mph N/A   Clear
12:55 PM 17.6 °F 2.7 °F -2.0 °F 42% 30.29 in 10.0 mi WSW 16.1 mph - N/A   Clear
1:15 PM 18.3 °F 4.6 °F -0.9 °F 43% 30.28 in 10.0 mi WSW 13.8 mph - N/A   Clear
1:35 PM 18.7 °F 7.0 °F 0.1 °F 44% 30.28 in 10.0 mi SW 10.4 mph 18.4 mph N/A   Clear
1:55 PM 19.0 °F 5.6 °F -0.2 °F 43% 30.28 in 10.0 mi SW 13.8 mph 20.7 mph N/A   Clear
2:15 PM 19.4 °F 6.0 °F -0.2 °F 42% 30.28 in 10.0 mi SW 13.8 mph 19.6 mph N/A   Clear
2:35 PM 19.8 °F 5.9 °F -0.0 °F 42% 30.27 in 10.0 mi SW 15.0 mph - N/A   Clear
2:55 PM 20.1 °F 6.4 °F -0.0 °F 41% 30.27 in 10.0 mi SW 15.0 mph 21.9 mph N/A   Clear
3:15 PM 20.1 °F 7.5 °F 0.3 °F 42% 30.27 in 10.0 mi SW 12.7 mph - N/A   Clear
3:35 PM 20.1 °F 5.4 °F -0.0 °F 41% 30.28 in 10.0 mi WSW 17.3 mph 21.9 mph N/A   Clear
3:55 PM 20.3 °F 6.6 °F -0.8 °F 40% 30.28 in 10.0 mi WSW 15.0 mph - N/A   Clear
4:15 PM 20.3 °F 8.3 °F 0.3 °F 42% 30.28 in 10.0 mi SW 11.5 mph - N/A   Clear
4:35 PM 20.3 °F 9.0 °F 0.9 °F 43% 30.29 in 10.0 mi WSW 10.4 mph - N/A   Clear
4:55 PM 20.3 °F 11.5 °F 0.5 °F 42% 30.30 in 10.0 mi SW 6.9 mph - N/A   Clear
5:15 PM 19.6 °F 10.6 °F 0.7 °F 44% 30.30 in 10.0 mi SW 6.9 mph - N/A   Clear
5:35 PM 18.5 °F 10.4 °F 0.1 °F 45% 30.30 in 10.0 mi SW 5.8 mph - N/A   Clear
5:55 PM 16.7 °F 6.2 °F -0.6 °F 47% 30.29 in 10.0 mi SW 8.1 mph - N/A   Clear
6:15 PM 15.6 °F 4.9 °F -1.1 °F 48% 30.29 in 10.0 mi SSW 8.1 mph - N/A   Clear
6:35 PM 15.1 °F 5.2 °F -1.3 °F 48% 30.29 in 10.0 mi SSW 6.9 mph - N/A   Clear
6:55 PM 14.9 °F 4.0 °F -1.8 °F 48% 30.29 in 10.0 mi South 8.1 mph - N/A   Clear
7:15 PM 14.5 °F 5.7 °F -1.5 °F 49% 30.30 in 10.0 mi SSW 5.8 mph - N/A   Clear
7:35 PM 14.4 °F 6.9 °F -1.3 °F 50% 30.31 in 10.0 mi SSW 4.6 mph - N/A   Clear
7:55 PM 14.4 °F 5.5 °F -1.3 °F 50% 30.30 in 10.0 mi SSW 5.8 mph - N/A   Clear
8:15 PM 13.6 °F 6.0 °F -1.7 °F 51% 30.30 in 10.0 mi SSW 4.6 mph - N/A   Clear
8:35 PM 13.1 °F 4.0 °F -2.2 °F 51% 30.30 in 10.0 mi SSW 5.8 mph - N/A   Clear
8:55 PM 13.1 °F 5.4 °F -2.2 °F 51% 30.30 in 10.0 mi SSW 4.6 mph - N/A   Clear
9:15 PM 12.6 °F 3.4 °F -2.7 °F 51% 30.30 in 10.0 mi SSW 5.8 mph - N/A   Clear
9:35 PM 11.8 °F 1.3 °F -3.3 °F 51% 30.30 in 10.0 mi South 6.9 mph - N/A   Clear
9:55 PM 11.1 °F 3.1 °F -3.6 °F 52% 30.30 in 10.0 mi South 4.6 mph - N/A   Clear
10:15 PM 10.6 °F -2.2 °F -3.6 °F 53% 30.29 in 10.0 mi South 9.2 mph - N/A   Clear
10:35 PM 10.4 °F -1.5 °F -3.5 °F 54% 30.29 in 10.0 mi South 8.1 mph - N/A   Clear
10:55 PM 10.2 °F -0.6 °F -3.5 °F 54% 30.29 in 10.0 mi South 6.9 mph - N/A   Clear
11:15 PM 10.0 °F -0.9 °F -3.6 °F 54% 30.28 in 10.0 mi South 6.9 mph - N/A   Clear
11:35 PM 9.5 °F -1.5 °F -3.8 °F 55% 30.28 in 10.0 mi South 6.9 mph - N/A   Clear
11:55 PM 9.7 °F -1.3 °F -3.5 °F 55% 30.28 in 10.0 mi South 6.9 mph - N/A   Clear